Weather History for KFVE - October, 2011

Change the Weather History Date:

Monday, October 17, 2011

  Actual Average Record
Temperature  
Mean Temperature 45 °F 42 °F  
Max Temperature 51 °F 49 °F 62 °F (2014)
Min Temperature 39 °F 34 °F 24 °F (2000)
Degree Days  
Heating Degree Days 20    
Month to date heating degree days 284  
Since 1 July heating degree days 668  
Cooling Degree Days 0    
Month to date cooling degree days 3  
Year to date cooling degree days 87  
Moisture  
Dew Point 39 °F    
Average Humidity 86    
Maximum Humidity 100    
Minimum Humidity 54    
Precipitation  
Precipitation 0.07 in 0.08 in 1.61 in (2014)
Month to date precipitation 2.14 1.45  
Year to date precipitation 36.75 27.03  
Sea Level Pressure  
Sea Level Pressure 29.47 in    
Wind  
Wind Speed 8 mph (SW)    
Max Wind Speed 25 mph    
Max Gust Speed 33 mph    
Visibility 8 miles    
Events Fog , Rain    
T = Trace of Precipitation, MM = Missing Value Source: NWS Daily Summary

Daily Weather History Graph

Daily Weather History Graph

Search for Another Location

Airport or City:

Trip Planner

Search our weather history database for the weather conditions in past years. The results will help you decide how hot, cold, wet, or windy it might be!

Date:

Astronomy

Oct. 17, 2011 Rise Set
Actual Time 6:54 AM EDT 5:42 PM EDT
Civil Twilight 6:23 AM EDT 6:13 PM EDT
Nautical Twilight 5:47 AM EDT 6:48 PM EDT
Astronomical Twilight 5:12 AM EDT 7:24 PM EDT
Moon 9:03 PM EDT (10/17) 12:14 PM EDT (10/17)
Length of Visible Light 11h 50m
Length of Day
10h 48m
Waning Gibbous, 74% of the Moon is Illuminated
Oct 17
Waning Gibbous
Oct 19
Last Quarter
Oct 26
New
Nov 2
First Quarter
Nov 10
Full

Hourly Weather History & Observations

Time (EDT) Temp. Windchill Dew Point Humidity Pressure Visibility Wind Dir Wind Speed Gust Speed Precip Events Conditions
12:53 AM 39.9 °F 36.7 °F 37.9 °F 93% 29.54 in 10.0 mi SE 4.6 mph - 0.00 in Rain Light Rain
1:53 AM 41.0 °F 36.4 °F 37.9 °F 89% 29.52 in 10.0 mi SSE 6.9 mph - 0.00 in   Overcast
2:53 AM 41.0 °F 37.1 °F 37.4 °F 87% 29.48 in 10.0 mi SE 5.8 mph - N/A   Overcast
3:53 AM 41.0 °F 37.1 °F 37.4 °F 87% 29.46 in 10.0 mi SE 5.8 mph - N/A   Overcast
4:53 AM 41.0 °F - 39.0 °F 93% 29.46 in 10.0 mi Calm Calm - N/A   Overcast
5:53 AM 42.8 °F 38.6 °F 39.2 °F 87% 29.43 in 10.0 mi SSE 6.9 mph - N/A Rain Light Rain
6:53 AM 42.1 °F 37.7 °F 41.0 °F 96% 29.43 in 9.0 mi South 6.9 mph - 0.00 in Rain Light Rain
7:08 AM 41.0 °F 37.1 °F 41.0 °F 100% 29.42 in 6.0 mi South 5.8 mph - 0.01 in Rain Light Rain
7:48 AM 41.0 °F 38.0 °F 41.0 °F 100% 29.41 in 2.0 mi SSE 4.6 mph - 0.04 in Rain Light Rain
7:53 AM 41.0 °F 39.0 °F 41.0 °F 100% 29.41 in 1.8 mi South 3.5 mph - N/A Rain Light Rain
7:55 AM 41.0 °F 38.0 °F 41.0 °F 100% 29.41 in 1.2 mi South 4.6 mph - 0.01 in Rain Light Rain
8:03 AM 41.0 °F 39.0 °F 41.0 °F 100% 29.41 in 0.2 mi South 3.5 mph - 0.01 in Fog , Rain Light Rain
8:31 AM 42.8 °F 39.3 °F 42.8 °F 100% 29.41 in 1.5 mi SSW 5.8 mph - 0.01 in Rain Light Rain
8:34 AM 42.8 °F 40.1 °F 42.8 °F 100% 29.42 in 0.8 mi SSW 4.6 mph - 0.01 in Rain Light Rain
8:53 AM 42.1 °F 39.2 °F 42.1 °F 100% 29.43 in 0.5 mi SSW 4.6 mph - 0.01 in Fog Fog
9:14 AM 42.8 °F 39.3 °F 42.8 °F 100% 29.42 in 1.5 mi SW 5.8 mph - N/A   Overcast
9:17 AM 42.8 °F 38.6 °F 42.8 °F 100% 29.42 in 3.0 mi SW 6.9 mph - N/A   Overcast
9:39 AM 42.8 °F 39.3 °F 42.8 °F 100% 29.42 in 8.0 mi SW 5.8 mph - N/A   Mostly Cloudy
9:53 AM 45.0 °F 41.2 °F 44.1 °F 97% 29.43 in 8.0 mi SW 6.9 mph - N/A   Overcast
10:26 AM 46.4 °F 41.5 °F 42.8 °F 87% 29.42 in 9.0 mi WSW 10.4 mph 20.7 mph N/A   Overcast
10:53 AM 48.0 °F - 42.1 °F 80% 29.44 in 9.0 mi WSW 11.5 mph 20.7 mph N/A   Scattered Clouds
11:02 AM 48.2 °F - 41.0 °F 76% 29.42 in 9.0 mi West 10.4 mph 20.7 mph N/A   Mostly Cloudy
11:35 AM 46.4 °F 39.8 °F 39.2 °F 76% 29.42 in 10.0 mi West 16.1 mph 23.0 mph N/A   Overcast
11:53 AM 48.0 °F - 39.9 °F 74% 29.43 in 10.0 mi WSW 12.7 mph - N/A   Overcast
12:53 PM 50.0 °F - 39.0 °F 66% 29.43 in 10.0 mi West 16.1 mph 21.9 mph N/A   Mostly Cloudy
1:53 PM 50.0 °F - 39.0 °F 66% 29.43 in 10.0 mi West 11.5 mph 21.9 mph 0.01 in   Mostly Cloudy
2:53 PM 50.0 °F - 34.0 °F 54% 29.46 in 10.0 mi WSW 17.3 mph 26.5 mph N/A   Mostly Cloudy
3:53 PM 48.9 °F - 33.1 °F 54% 29.47 in 10.0 mi West 18.4 mph 25.3 mph N/A   Clear
4:53 PM 46.0 °F 40.6 °F 33.1 °F 61% 29.49 in 10.0 mi WSW 11.5 mph - N/A   Clear
5:53 PM 45.0 °F 42.6 °F 34.0 °F 65% 29.50 in 10.0 mi SW 4.6 mph - N/A   Overcast
6:53 PM 45.0 °F 41.2 °F 35.1 °F 68% 29.52 in 10.0 mi WSW 6.9 mph - N/A   Overcast
7:53 PM 44.1 °F 42.5 °F 36.0 °F 73% 29.52 in 10.0 mi WSW 3.5 mph - N/A   Overcast
8:16 PM 42.8 °F 34.0 °F 37.4 °F 81% 29.53 in 6.0 mi WSW 20.7 mph 31.1 mph 0.00 in Rain Light Rain
8:28 PM 41.0 °F 34.7 °F 39.2 °F 93% 29.53 in 6.0 mi WSW 10.4 mph 24.2 mph 0.01 in Rain Light Rain
8:53 PM 41.0 °F 34.3 °F 37.9 °F 89% 29.55 in 10.0 mi SW 11.5 mph 18.4 mph 0.01 in   Mostly Cloudy
9:53 PM 41.0 °F 35.2 °F 37.9 °F 89% 29.56 in 10.0 mi SW 9.2 mph - N/A   Overcast
10:16 PM 41.0 °F 34.7 °F 37.4 °F 87% 29.55 in 10.0 mi SW 10.4 mph - N/A   Overcast
10:36 PM 39.2 °F 33.6 °F 37.4 °F 93% 29.55 in 10.0 mi SSW 8.1 mph - N/A   Overcast
10:53 PM 39.9 °F 34.5 °F 37.9 °F 93% 29.57 in 10.0 mi SW 8.1 mph - N/A   Mostly Cloudy
11:53 PM 39.9 °F 36.7 °F 37.9 °F 93% 29.57 in 10.0 mi SW 4.6 mph - N/A   Mostly Cloudy